Location: Plainartige
(45.6866°N, 1.7993°E)
Time: 23:06:59
(UTC+00:00)

DIWATA 2B (PO-101) - Pass Details

Date: 10 July 2022
Orbit: 583 x 599 km, 98.0° (Epoch: 07 August)

Event Time Altitude Azimuth Distance (km) Brightness Sun altitude
Exits shadow 02:55:25 14° 242° (WSW) 1,693 ? -11.1°
Maximum altitude 02:57:01 17° 268° (W) 1,550 ? -10.9°
Drops below altitude 10° 02:59:45 10° 309° (NW) 1,945 ? -10.6°
Sets 03:02:38 0° 330° (NNW) 2,852 ? -10.2°
